Pittsburgh Allegheny Co., PA

9:07 AM EST on December 13, 2017 (GMT -0500)
Allegheny County

Weather History for KAGC - December, 2013

Change the Weather History Date:

Tuesday, December 17, 2013

  Actual Average Record
Temperature  
Mean Temperature 30 °F -  
Max Temperature 35 °F 39 °F 60 °F (2006)
Min Temperature 24 °F 27 °F 15 °F (2000)
Degree Days  
Heating Degree Days 36    
Moisture  
Dew Point 25 °F    
Average Humidity 82    
Maximum Humidity 93    
Minimum Humidity 66    
Precipitation  
Precipitation 0.07 in - - ()
Sea Level Pressure  
Sea Level Pressure 29.98 in    
Wind  
Wind Speed 7 mph (SW)    
Max Wind Speed 14 mph    
Max Gust Speed 23 mph    
Visibility 5 miles    
Events Snow    
Averages and records for this station are not official NWS values.
T = Trace of Precipitation, MM = Missing Value Source: NWS Daily Summary

Daily Weather History Graph

Daily Weather History Graph

Search for Another Location

Airport or City:

Trip Planner

Search our weather history database for the weather conditions in past years. The results will help you decide how hot, cold, wet, or windy it might be!

Date:

Astronomy

Dec. 17, 2013 Rise Set
Actual Time 7:36 AM EST 4:55 PM EST
Civil Twilight 7:06 AM EST 5:25 PM EST
Nautical Twilight 6:31 AM EST 6:00 PM EST
Astronomical Twilight 5:58 AM EST 6:33 PM EST
Moon 5:33 PM EST (12/17) 7:31 AM EST (12/17)
Length of Visible Light 10h 19m
Length of Day
9h 18m
Full, 100% of the Moon is Illuminated
Dec 17
Full
Dec 25
Last Quarter
Jan 1
New
Jan 7
First Quarter
Jan 15
Full

Hourly Weather History & Observations

Time (EST) Temp. Windchill Dew Point Humidity Pressure Visibility Wind Dir Wind Speed Gust Speed Precip Events Conditions
12:00 AM 24.8 °F 17.9 °F 21.2 °F 86% 30.00 in 1.0 mi SE 5.8 mph - 0.00 in Snow Light Snow
12:06 AM 24.8 °F 19.1 °F 21.2 °F 86% 29.99 in 0.8 mi SE 4.6 mph - 0.01 in Snow Light Snow
12:53 AM 25.0 °F 19.3 °F 23.0 °F 92% 30.04 in 0.8 mi SE 4.6 mph - 0.04 in Snow Light Snow
1:13 AM 24.8 °F 19.1 °F 23.0 °F 93% 29.96 in 1.0 mi SE 4.6 mph - 0.02 in Snow Light Snow
1:30 AM 24.8 °F 19.1 °F 23.0 °F 93% 29.96 in 1.2 mi SSE 4.6 mph - 0.02 in Snow Light Snow
1:53 AM 26.1 °F 18.4 °F 24.1 °F 92% 30.02 in 2.5 mi SSE 6.9 mph - 0.03 in   Overcast
2:02 AM 26.6 °F 19.1 °F 24.8 °F 93% 29.95 in 3.0 mi SSE 6.9 mph - N/A   Overcast
2:36 AM 26.6 °F 18.2 °F 24.8 °F 93% 29.95 in 2.5 mi SSE 8.1 mph - N/A   Overcast
2:44 AM 26.6 °F 18.2 °F 24.8 °F 93% 29.94 in 3.0 mi SSE 8.1 mph - N/A   Overcast
2:53 AM 27.0 °F 18.0 °F 25.0 °F 92% 30.00 in 3.0 mi SSE 9.2 mph - N/A   Overcast
3:53 AM 28.9 °F 20.4 °F 26.1 °F 89% 29.97 in 4.0 mi South 9.2 mph - N/A   Overcast
4:53 AM 30.9 °F 22.8 °F 27.0 °F 85% 29.96 in 6.0 mi South 9.2 mph - N/A   Overcast
5:53 AM 30.9 °F 24.3 °F 28.0 °F 89% 29.96 in 6.0 mi South 6.9 mph - N/A   Overcast
6:09 AM 32.0 °F 26.4 °F 28.4 °F 87% 29.91 in 6.0 mi South 5.8 mph - N/A   Overcast
6:51 AM 32.0 °F 26.4 °F 28.4 °F 87% 29.91 in 6.0 mi South 5.8 mph - N/A   Overcast
6:53 AM 32.0 °F 26.4 °F 28.9 °F 88% 29.97 in 6.0 mi South 5.8 mph - N/A   Overcast
7:53 AM 34.0 °F 29.8 °F 30.0 °F 85% 29.97 in 6.0 mi SSW 4.6 mph - N/A   Overcast
8:53 AM 35.1 °F 25.9 °F 30.0 °F 82% 30.00 in 5.0 mi West 13.8 mph - N/A   Haze
9:20 AM 33.8 °F 25.8 °F 30.2 °F 87% 29.96 in 2.5 mi West 10.4 mph - N/A   Overcast
9:43 AM 33.8 °F 25.3 °F 30.2 °F 87% 29.96 in 1.8 mi West 11.5 mph 16.1 mph 0.00 in   Overcast
9:50 AM 33.8 °F 27.0 °F 30.2 °F 87% 29.96 in 2.5 mi West 8.1 mph - 0.00 in   Overcast
9:53 AM 34.0 °F 26.6 °F 30.9 °F 89% 30.02 in 3.0 mi West 9.2 mph - 0.00 in   Overcast
10:53 AM 33.1 °F 24.4 °F 28.9 °F 85% 30.03 in 4.0 mi West 11.5 mph 17.3 mph N/A   Overcast
11:53 AM 33.1 °F 26.1 °F 28.0 °F 82% 30.01 in 5.0 mi West 8.1 mph - N/A   Haze
12:53 PM 33.1 °F 26.9 °F 26.1 °F 75% 29.99 in 9.0 mi West 6.9 mph - N/A   Overcast
1:45 PM 33.8 °F 29.6 °F 24.8 °F 70% 29.93 in 10.0 mi NW 4.6 mph - N/A   Overcast
1:53 PM 33.1 °F 26.9 °F 24.1 °F 70% 29.99 in 10.0 mi West 6.9 mph - N/A   Overcast
2:53 PM 33.1 °F 26.9 °F 24.1 °F 70% 29.97 in 10.0 mi WSW 6.9 mph - N/A   Overcast
3:53 PM 33.1 °F 27.7 °F 23.0 °F 66% 29.97 in 10.0 mi WSW 5.8 mph - N/A   Scattered Clouds
4:53 PM 30.9 °F 25.2 °F 23.0 °F 72% 29.98 in 10.0 mi West 5.8 mph - N/A   Mostly Cloudy
5:53 PM 30.9 °F 25.2 °F 23.0 °F 72% 29.98 in 10.0 mi WSW 5.8 mph - N/A   Overcast
6:53 PM 30.0 °F 24.1 °F 23.0 °F 75% 30.00 in 10.0 mi West 5.8 mph - N/A   Mostly Cloudy
7:53 PM 30.0 °F 25.2 °F 21.9 °F 72% 29.99 in 10.0 mi West 4.6 mph - N/A   Overcast
8:53 PM 30.0 °F 20.5 °F 23.0 °F 75% 30.00 in 10.0 mi West 11.5 mph - N/A   Overcast
9:53 PM 28.9 °F 18.6 °F 21.9 °F 75% 30.02 in 4.0 mi West 12.7 mph - 0.00 in Snow Light Snow
10:53 PM 28.9 °F 18.6 °F 21.0 °F 72% 30.04 in 8.0 mi West 12.7 mph 23.0 mph 0.00 in   Overcast
11:02 PM 28.4 °F 18.0 °F 21.2 °F 74% 29.98 in 8.0 mi West 12.7 mph - N/A   Overcast
11:39 PM 28.4 °F 18.5 °F 21.2 °F 74% 30.00 in 2.5 mi West 11.5 mph 21.9 mph 0.00 in Snow Light Snow
11:51 PM 26.6 °F 16.2 °F 21.2 °F 80% 30.00 in 1.5 mi WSW 11.5 mph - 0.00 in Snow Light Snow
11:53 PM 27.0 °F 16.1 °F 23.0 °F 85% 30.06 in 1.8 mi West 12.7 mph - 0.00 in Snow Light Snow